Location: PSU-Greenbush Astrophysical Observatory
(37.5140°N, 94.9880°W)
Time: 13:26:48
(UTC-06:00)

Transit 2A - Pass Details

Date: 28 January 2020
Orbit: 600 x 959 km, 66.7° (Epoch: 19 February)

Event Time Altitude Azimuth Distance (km) Brightness Sun altitude
Rises 05:34:05 0° 318° (NW) 3,067 - -22.4°
Reaches altitude 10° 05:36:36 10° 307° (NW) 2,202 - -21.9°
Maximum altitude 05:40:49 27° 250° (WSW) 1,424 - -21.1°
Exits shadow 05:42:23 23° 222° (SW) 1,590 7.3 -20.8°
Drops below altitude 10° 05:45:22 10° 193° (SSW) 2,392 8.5 -20.2°
Sets 05:48:14 0° 182° (S) 3,385 9.4 -19.7°
